1531702800.27,17685,16.81,73862.5,3.87,2.95,3.03,0,*72
1531702801.47,17686,16.81,73862.3,3.87,2.95,2.95,0,*7F
1531702802.72,17687,16.81,73860.3,3.87,3.03,3.03,0,*7E
1531702803.92,17688,16.81,73858.8,3.87,2.91,2.95,0,*75
1531702805.1,17689,16.88,73862.0,3.89,2.91,2.95,0,*7A
1531702806.35,17690,16.81,73858.0,3.87,3.03,3.07,0,*7C
1531702807.52,17691,16.81,73856.0,3.85,2.95,2.95,0,*7B
1531702808.73,17692,16.81,73858.3,3.85,2.91,3.03,0,*72
1531702809.9,17693,16.81,73858.8,3.85,2.99,2.99,0,*79
1531702811.13,17694,16.81,73856.5,3.87,2.95,3.03,0,*72
1531702812.38,17695,16.81,73862.3,3.87,3.03,3.03,0,*7D
1531702813.63,17696,16.81,73852.5,3.87,3.03,3.03,0,*7E
1531702814.89,17697,16.81,73852.5,3.87,3.07,3.07,0,*7F
1531702816.06,17698,16.81,73854.8,3.85,2.99,2.99,0,*72
1531702817.24,17699,16.81,73856.8,3.85,2.91,2.91,0,*73
1531702818.41,17700,16.81,73856.3,3.85,2.99,2.99,0,*72
1531702819.59,17701,16.81,73842.0,3.85,2.99,2.99,0,*73
1531702820.84,17702,16.88,73844.5,3.83,3.11,3.11,0,*76
1531702822.06,17703,16.81,73840.5,3.85,3.11,3.11,0,*71
1531702823.3,17704,16.81,73842.5,3.85,3.15,3.11,0,*72
1531702824.53,17705,16.81,73840.0,3.85,3.15,3.15,0,*77
1531702825.76,17706,16.81,73842.3,3.85,3.15,3.19,0,*78
1531702826.99,17707,16.81,73854.8,3.85,3.19,3.15,0,*79
1531702828.21,17708,16.81,73862.0,3.85,3.19,3.15,0,*76
1531702829.41,17709,16.81,73860.8,3.85,3.25,3.15,0,*78
1531702830.64,17710,16.81,73854.0,3.85,3.19,3.15,0,*7F
1531702831.87,17711,16.88,73856.5,3.85,3.15,3.15,0,*72
1531702833.1,17712,16.81,73846.8,3.85,3.15,3.19,0,*7D
1531702834.35,17713,16.81,73844.3,3.87,3.23,3.23,0,*72
1531702835.57,17714,16.81,73846.8,3.87,3.29,3.19,0,*76
1531702836.82,17715,16.81,73848.3,3.87,3.23,3.23,0,*74
1531702838.04,17716,16.81,73846.5,3.87,3.23,3.29,0,*7D
1531702839.27,17717,16.81,73846.0,3.87,3.23,3.29,0,*7C
1531702840.5,17718,16.81,73854.3,3.87,3.23,3.29,0,*73
1531702841.73,17719,16.88,73886.3,3.87,3.29,3.33,0,*73
1531702842.95,17720,16.81,73876.8,3.87,3.23,3.29,0,*78
1531702844.19,17721,16.81,73874.8,3.87,3.19,3.19,0,*73
1531702845.44,17722,16.81,73874.3,3.87,3.23,3.23,0,*70
1531702846.64,17723,16.81,73868.0,3.89,3.29,3.23,0,*75
1531702847.87,17724,16.81,73884.0,3.87,3.29,3.33,0,*7D
1531702849.1,17725,16.81,73880.0,3.87,3.29,3.33,0,*7C
1531702850.35,17726,16.81,73876.5,3.87,3.33,3.33,0,*74
1531702851.57,17727,16.81,73872.5,3.87,3.29,3.33,0,*7E
1531702852.79,17728,16.81,73872.3,3.87,3.33,3.29,0,*71
1531702854.02,17729,16.81,73870.0,3.87,3.29,3.33,0,*70
1531702855.23,17730,16.81,73870.3,3.89,3.29,3.33,0,*76
1531702856.46,17731,16.81,73872.0,3.87,3.29,3.33,0,*79
1531702857.66,17732,16.81,73870.0,3.87,3.29,3.29,0,*71
1531702858.91,17733,16.81,73872.8,3.87,3.33,3.33,0,*70
1531702860.16,17734,16.81,73874.5,3.87,3.33,3.33,0,*77
1531702861.36,17735,16.81,73872.8,3.89,3.33,3.29,0,*73
1531702862.56,17736,16.81,73864.8,3.89,3.23,3.29,0,*71
1531702863.77,17737,16.81,73870.3,3.89,3.29,3.33,0,*71
1531702865.0,17738,16.81,73872.0,3.89,3.41,3.33,0,*70
1531702866.23,17739,16.81,73864.8,3.89,3.33,3.33,0,*74
1531702867.46,17740,16.81,73866.0,3.89,3.33,3.33,0,*7A
1531702868.69,17741,16.81,73864.8,3.89,3.33,3.33,0,*7B
1531702869.94,17742,16.81,73870.8,3.87,3.33,3.33,0,*76
1531702871.16,17743,16.81,73878.5,3.89,3.33,3.33,0,*79
1531702872.4,17744,16.81,73876.5,3.89,3.41,3.33,0,*7B
1531702873.6,17745,16.81,73882.3,3.89,3.33,3.29,0,*74
1531702874.8,17746,16.81,73886.5,3.89,3.33,3.29,0,*77
1531702876.03,17747,16.81,73884.3,3.89,3.33,3.33,0,*7D
1531702877.25,17748,16.81,73874.0,3.93,3.37,3.33,0,*7D
1531702878.48,17749,16.81,73880.5,3.93,3.37,3.33,0,*7C
1531702879.7,17750,16.81,73882.5,3.93,3.37,3.37,0,*70
1531702880.94,17751,16.81,73878.8,3.95,3.37,3.37,0,*77
1531702882.14,17752,16.81,73874.5,3.93,3.25,3.33,0,*75
1531702883.32,17753,16.81,73872.0,3.93,3.25,3.25,0,*73
1531702884.54,17754,16.81,73876.3,3.93,3.33,3.37,0,*70
1531702885.71,17755,16.81,73874.0,3.93,3.25,3.25,0,*75
1531702886.93,17756,16.81,73870.8,3.93,3.11,3.19,0,*7E
1531702888.15,17757,16.88,73872.8,3.93,3.19,3.19,0,*77
1531702889.38,17758,16.81,73868.5,3.89,3.07,3.15,0,*70
1531702890.62,17759,16.81,73870.0,3.89,3.15,3.15,0,*72
1531702891.85,17760,16.81,73874.0,3.89,3.19,3.15,0,*74
1531702893.07,17761,16.81,73880.5,3.89,3.19,3.19,0,*79
1531702894.29,17762,16.81,73874.3,3.89,3.19,3.19,0,*7A
1531702895.52,17763,16.81,73874.3,3.89,3.23,3.19,0,*72
1531702896.74,17764,16.81,73878.0,3.89,3.23,3.23,0,*7C
1531702897.99,17765,16.81,73868.3,3.87,3.23,3.23,0,*73
1531702899.21,17766,16.81,73868.0,3.89,3.19,3.19,0,*7E
1531702900.43,17767,16.81,73868.3,3.89,3.19,3.19,0,*7F
1531702901.66,17768,16.81,73864.8,3.89,3.23,3.23,0,*70
1531702902.88,17769,16.81,73864.0,3.89,3.23,3.23,0,*71
1531702904.08,17770,16.81,73856.5,3.89,3.29,3.23,0,*73
1531702905.28,17771,16.81,73856.5,3.89,3.33,3.29,0,*73
1531702906.51,17772,16.81,73856.5,3.89,3.33,3.33,0,*7B
1531702907.75,17773,16.81,73856.3,3.89,3.45,3.41,0,*7E
1531702908.98,17774,16.81,73854.0,3.89,3.41,3.45,0,*79
1531702910.22,17775,16.81,73852.8,3.89,3.41,3.41,0,*7C
1531702911.46,17776,16.81,73854.0,3.89,3.41,3.41,0,*7F
1531702912.68,17777,16.81,73850.8,3.93,3.49,3.45,0,*79
1531702913.9,17778,16.81,73850.5,3.93,3.45,3.45,0,*7A
1531702915.13,17779,16.81,73846.0,3.93,3.37,3.45,0,*7E
1531702916.35,17780,16.81,73842.3,3.93,3.49,3.49,0,*7D
1531702917.57,17781,16.81,73842.0,3.93,3.37,3.45,0,*79
1531702918.8,17782,16.81,73846.5,3.93,3.45,3.45,0,*7F
1531702920.02,17783,16.81,73850.8,3.93,3.37,3.37,0,*7E
1531702921.2,17784,16.81,73854.8,3.89,3.29,3.29,0,*72
1531702922.42,17785,16.81,73852.0,3.93,3.45,3.37,0,*7D
1531702923.64,17786,16.81,73844.8,3.93,3.45,3.33,0,*7A
1531702924.87,17787,16.81,73848.8,3.93,3.49,3.41,0,*72
1531702926.09,17788,16.81,73858.0,3.93,3.33,3.33,0,*75
1531702927.34,17789,16.81,73860.5,3.95,3.41,3.37,0,*73
1531702928.56,17790,16.81,73854.0,3.93,3.37,3.37,0,*7C
1531702929.79,17791,16.81,73846.5,3.93,3.37,3.45,0,*78
1531702931.01,17792,16.81,73844.3,3.93,3.33,3.37,0,*7A
1531702932.23,17793,16.81,73842.5,3.95,3.23,3.25,0,*7F
1531702933.46,17794,16.81,73836.3,3.93,3.11,3.11,0,*78
1531702934.68,17795,16.81,73832.5,3.93,3.11,3.11,0,*79
1531702935.91,17796,16.81,73820.5,3.93,3.11,3.11,0,*7A
1531702937.13,17797,16.81,73814.3,3.93,3.11,3.11,0,*7B
1531702938.35,17798,16.81,73822.8,3.93,3.19,3.07,0,*7B
1531702939.59,17799,16.81,73826.8,3.89,3.07,3.07,0,*7E
1531702940.79,17800,16.81,73830.0,3.89,2.95,3.03,0,*7F
1531702941.96,17801,16.81,73870.5,3.89,2.95,2.95,0,*70
1531702943.2,17802,16.81,73866.0,3.89,3.07,3.07,0,*73
1531702944.45,17803,16.81,73868.8,3.87,3.15,3.07,0,*7F
1531702945.71,17804,16.81,73866.8,3.87,3.15,3.15,0,*7B
1531702946.95,17805,16.81,73864.0,3.89,3.15,3.15,0,*74
1531702948.19,17806,16.81,73866.8,3.87,3.19,3.19,0,*79
1531702949.42,17807,16.81,73858.8,3.89,3.23,3.19,0,*7F
1531702950.66,17808,16.81,73858.3,3.87,3.19,3.19,0,*77
1531702951.9,17809,16.81,73860.3,3.87,3.19,3.23,0,*7F
1531702953.13,17810,16.81,73858.5,3.89,3.23,3.19,0,*79
1531702954.33,17811,16.81,73864.0,3.89,3.29,3.33,0,*7A
1531702955.51,17812,16.81,73868.3,3.89,3.29,3.29,0,*72
1531702956.69,17813,16.81,73866.3,3.89,3.29,3.29,0,*73
1531702957.9,17814,16.81,73864.0,3.89,3.29,3.33,0,*7F
1531702959.08,17815,16.81,73864.3,3.89,3.29,3.29,0,*75
1531702960.31,17816,16.81,73860.0,3.89,3.33,3.33,0,*76
1531702961.54,17817,16.81,73858.3,3.89,3.33,3.33,0,*77
1531702962.74,17818,16.81,73858.8,3.89,3.33,3.29,0,*73
1531702963.94,17819,16.81,73866.0,3.87,3.29,3.29,0,*77
1531702965.17,17820,16.81,73870.0,3.89,3.33,3.33,0,*73
1531702966.4,17821,16.81,73862.5,3.89,3.41,3.33,0,*77
1531702967.63,17822,16.81,73860.0,3.93,3.45,3.33,0,*7B
1531702968.83,17823,16.81,73862.5,3.89,3.33,3.29,0,*7B
1531702970.05,17824,16.81,73856.8,3.89,3.33,3.33,0,*77
1531702971.29,17825,16.81,73858.5,3.89,3.33,3.41,0,*73
1531702972.51,17826,16.81,73856.3,3.93,3.37,3.37,0,*7E
1531702973.73,17827,16.81,73854.0,3.93,3.37,3.33,0,*7B
1531702974.95,17828,16.81,73854.0,3.93,3.33,3.37,0,*74
1531702976.17,17829,16.81,73854.5,3.93,3.37,3.37,0,*71
1531702977.42,17830,16.81,73852.3,3.95,3.37,3.37,0,*7F
1531702978.66,17831,16.81,73852.0,3.95,3.37,3.37,0,*7E
1531702979.88,17832,16.81,73852.3,3.93,3.37,3.37,0,*7B
1531702981.11,17833,16.81,73856.3,3.93,3.37,3.33,0,*7E
1531702982.33,17834,16.88,73862.3,3.93,3.37,3.45,0,*78
1531702983.56,17835,16.81,73856.0,3.89,3.33,3.41,0,*72
1531702984.81,17836,16.81,73856.3,3.95,3.49,3.41,0,*71
1531702986.06,17837,16.81,73858.5,3.95,3.49,3.49,0,*78
1531702987.31,17838,16.81,73860.0,3.95,3.53,3.49,0,*7C
1531702988.53,17839,16.81,73862.8,3.93,3.45,3.37,0,*75
1531702989.77,17840,16.81,73858.8,3.95,3.49,3.49,0,*78
1531702991.03,17841,16.81,73866.3,3.95,3.49,3.41,0,*71
1531702992.27,17842,16.81,73868.5,3.95,3.49,3.49,0,*7A
1531702993.5,17843,16.81,73870.3,3.93,3.45,3.45,0,*7D
1531702994.71,17844,16.81,73870.8,3.93,3.33,3.37,0,*7E
1531702995.94,17845,16.81,73874.5,3.93,3.33,3.33,0,*7B
1531702997.16,17846,16.81,73864.8,3.93,3.37,3.37,0,*78
1531702998.38,17847,16.81,73870.8,3.93,3.37,3.37,0,*79
1531702999.6,17848,16.81,73868.5,3.93,3.37,3.37,0,*76
1531703000.82,17849,16.81,73870.0,3.93,3.33,3.33,0,*77
1531703002.04,17850,16.81,73870.3,3.93,3.33,3.33,0,*7F
1531703003.26,17851,16.81,73868.5,3.93,3.37,3.37,0,*7E
1531703004.52,17852,16.81,73872.0,3.95,3.41,3.41,0,*7B
1531703005.77,17853,16.81,73882.5,3.95,3.41,3.37,0,*7B
1531703007.0,17854,16.81,73878.3,3.93,3.37,3.33,0,*7F
1531703008.25,17855,16.81,73872.3,3.95,3.37,3.41,0,*7D
1531703009.45,17856,16.81,73884.8,3.95,3.29,3.29,0,*7F
1531703010.67,17857,16.81,73880.5,3.93,3.33,3.33,0,*78
1531703011.89,17858,16.81,73882.8,3.93,3.37,3.37,0,*77
1531703013.11,17859,16.81,73872.0,3.93,3.33,3.33,0,*76
1531703014.37,17860,16.81,73868.3,3.95,3.41,3.41,0,*7A
1531703015.6,17861,16.81,73874.3,3.93,3.41,3.37,0,*7C
1531703016.85,17862,16.81,73872.3,3.95,3.41,3.41,0,*78
1531703018.08,17863,16.81,73874.0,3.95,3.29,3.37,0,*76
1531703019.3,17864,16.81,73878.5,3.93,3.37,3.37,0,*78
1531703020.55,17865,16.81,73878.3,3.95,3.37,3.41,0,*7E
1531703021.77,17866,16.81,73868.0,3.93,3.33,3.37,0,*7E
1531703022.99,17867,16.81,73868.3,3.93,3.37,3.37,0,*7B
1531703024.21,17868,16.81,73870.3,3.93,3.33,3.33,0,*74
1531703025.46,17869,16.81,73864.0,3.95,3.41,3.37,0,*72
1531703026.69,17870,16.81,73866.5,3.93,3.33,3.33,0,*7D
1531703027.9,17871,16.81,73864.0,3.93,3.33,3.37,0,*78
1531703029.13,17872,16.81,73852.5,3.95,3.37,3.29,0,*76
1531703030.33,17873,16.81,73840.5,3.93,3.23,3.25,0,*78
1531703031.53,17874,16.81,73858.5,3.95,3.29,3.25,0,*73
1531703032.73,17875,16.81,73868.0,3.95,3.25,3.29,0,*72
1531703033.93,17876,16.81,73868.0,3.95,3.25,3.29,0,*71
1531703035.18,17877,16.81,73866.8,3.95,3.37,3.37,0,*7C
1531703036.38,17878,16.81,73870.3,3.95,3.29,3.29,0,*73
1531703037.58,17879,16.81,73872.8,3.95,3.29,3.29,0,*72
1531703038.75,17880,16.81,73872.3,3.93,3.25,3.25,0,*72
1531703039.98,17881,16.81,73872.5,3.95,3.29,3.37,0,*7A
1531703041.15,17882,16.81,73868.3,3.93,3.25,3.29,0,*7C
1531703042.32,17883,16.81,73864.5,3.93,3.29,3.29,0,*71
1531703043.5,17884,16.81,73868.5,3.93,3.29,3.29,0,*76
1531703044.75,17885,16.81,73868.5,3.95,3.37,3.33,0,*75
1531703046.0,17886,16.81,73872.8,3.95,3.37,3.37,0,*72
1531703047.22,17887,16.81,73874.5,3.93,3.33,3.33,0,*75
1531703048.47,17888,16.81,73872.3,3.95,3.37,3.41,0,*7D
1531703049.72,17889,16.81,73876.0,3.95,3.37,3.37,0,*7D
1531703050.91,17890,16.81,73874.3,3.93,3.33,3.25,0,*74
1531703052.13,17891,16.81,73874.3,3.93,3.37,3.37,0,*72
1531703053.33,17892,16.81,73872.0,3.95,3.29,3.29,0,*77
1531703054.56,17893,16.81,73864.5,3.95,3.23,3.25,0,*70
1531703055.76,17894,16.81,73860.5,3.93,3.23,3.25,0,*71
1531703056.96,17895,16.81,73858.3,3.95,3.29,3.25,0,*7C
1531703058.21,17896,16.81,73858.8,3.95,3.37,3.33,0,*77
1531703059.41,17897,16.81,73856.3,3.95,3.25,3.29,0,*7E
1531703060.61,17898,16.81,73856.5,3.93,3.25,3.33,0,*7C
1531703061.79,17899,16.81,73866.0,3.93,3.25,3.25,0,*7A
1531703062.98,17900,16.81,73868.8,3.93,3.33,3.25,0,*7C
1531703064.18,17901,16.81,73872.3,3.95,3.29,3.29,0,*7C
1531703065.38,17902,16.81,73870.3,3.93,3.25,3.33,0,*7E
1531703066.64,17903,16.81,73872.3,3.95,3.41,3.41,0,*7E
1531703067.89,17904,16.81,73872.0,3.95,3.41,3.49,0,*71
1531703069.14,17905,16.81,73866.3,3.95,3.41,3.37,0,*79
1531703070.4,17906,16.81,73850.0,3.95,3.23,3.15,0,*7E
1531703071.65,17907,16.81,73842.8,3.95,3.15,3.07,0,*79
1531703072.9,17908,16.81,73842.0,3.95,3.23,3.23,0,*75
1531703074.12,17909,16.81,73842.5,3.93,3.11,3.19,0,*7A
1531703075.33,17910,16.81,73842.5,3.93,3.19,3.19,0,*7A
1531703076.55,17911,16.81,73842.3,3.93,3.19,3.19,0,*7B
1531703077.75,17912,16.88,73846.8,3.95,3.29,3.29,0,*7E
1531703078.92,17913,16.81,73846.8,3.93,3.29,3.29,0,*79
1531703080.1,17914,16.81,73858.3,3.93,3.25,3.25,0,*7E
1531703081.32,17915,16.81,73862.8,3.93,3.33,3.33,0,*7F
1531703082.52,17916,16.81,73860.5,3.93,3.37,3.25,0,*7F
1531703083.72,17917,16.81,73858.8,3.93,3.23,3.25,0,*7B
1531703084.91,17918,16.81,73864.0,3.93,3.33,3.25,0,*75
1531703086.14,17919,16.81,73862.3,3.95,3.29,3.37,0,*7A
1531703087.36,17920,16.81,73860.0,3.93,3.33,3.33,0,*79
1531703088.58,17921,16.81,73862.8,3.93,3.41,3.37,0,*79
1531703089.8,17922,16.81,73864.8,3.93,3.33,3.37,0,*7F
1531703091.05,17923,16.81,73866.8,3.95,3.37,3.37,0,*7C
1531703092.25,17924,16.81,73872.5,3.95,3.29,3.29,0,*7B
1531703093.45,17925,16.81,73864.0,3.93,3.25,3.33,0,*7B
1531703094.67,17926,16.81,73870.8,3.93,3.37,3.33,0,*7B
1531703095.89,17927,16.81,73870.5,3.93,3.33,3.37,0,*7A
1531703097.11,17928,16.81,73868.0,3.93,3.33,3.33,0,*71
1531703098.37,17929,16.81,73862.0,3.95,3.41,3.41,0,*76
1531703099.63,17930,16.88,73870.3,3.95,3.41,3.41,0,*7E
1531703100.85,17931,16.81,73866.5,3.93,3.33,3.33,0,*79
1531703102.1,17932,16.81,73862.8,3.95,3.37,3.33,0,*78
1531703103.32,17933,16.81,73864.5,3.93,3.37,3.37,0,*7B
1531703104.55,17934,16.81,73860.5,3.93,3.37,3.45,0,*79
1531703105.79,17935,16.81,73858.3,3.95,3.37,3.37,0,*7B
1531703106.97,17936,16.81,73858.0,3.93,3.25,3.25,0,*7E
1531703108.17,17937,16.81,73850.8,3.95,3.29,3.29,0,*79
1531703109.39,17938,16.81,73862.0,3.95,3.29,3.37,0,*79
1531703110.64,17939,16.81,73866.8,3.95,3.37,3.37,0,*77
1531703111.86,17940,16.81,73854.8,3.93,3.37,3.41,0,*7E
1531703113.06,17941,16.81,73856.3,3.93,3.33,3.25,0,*79
1531703114.26,17942,16.81,73848.0,3.95,3.29,3.29,0,*7B
1531703115.46,17943,16.81,73858.5,3.93,3.23,3.25,0,*7A
1531703116.65,17944,16.81,73864.3,3.93,3.25,3.23,0,*7D
1531703117.86,17945,16.81,73864.0,3.93,3.25,3.33,0,*7D
1531703119.11,17946,16.81,73868.0,3.95,3.37,3.33,0,*7B
1531703120.35,17947,16.81,73868.5,3.95,3.37,3.37,0,*7E
1531703121.6,17948,16.81,73874.3,3.95,3.37,3.37,0,*71
1531703122.82,17949,16.81,73872.3,3.95,3.29,3.37,0,*7F
1531703124.02,17950,16.81,73872.0,3.93,3.23,3.25,0,*78
1531703125.2,17951,16.81,73876.3,3.93,3.25,3.25,0,*7F
1531703126.4,17952,16.81,73874.0,3.95,3.25,3.25,0,*7A
1531703127.62,17953,16.81,73872.3,3.93,3.23,3.19,0,*74
1531703128.79,17954,16.81,73872.5,3.93,3.25,3.25,0,*7A
1531703129.97,17955,16.81,73876.5,3.93,3.29,3.29,0,*7B
1531703131.14,17956,16.81,73874.0,3.93,3.25,3.29,0,*74
1531703132.32,17957,16.81,73874.5,3.93,3.29,3.29,0,*79
1531703133.54,17958,16.81,73878.0,3.95,3.25,3.23,0,*76
1531703134.79,17959,16.81,73872.5,3.95,2.59,2.59,0,*71
1531703136.01,17960,16.81,73868.3,3.93,2.51,2.43,0,*7E
1531703137.21,17961,16.81,73864.3,3.93,2.55,2.61,0,*7B
1531703138.45,17962,16.81,73840.3,3.89,2.59,2.51,0,*7C
1531703139.68,17963,16.81,73840.8,3.89,2.51,2.51,0,*75
1531703140.94,17964,16.81,73836.5,3.87,2.51,2.59,0,*74
1531703142.18,17965,16.81,73846.0,3.87,2.69,2.73,0,*76
1531703143.38,17966,16.81,73852.3,3.87,2.91,2.91,0,*7E
1531703144.61,17967,16.81,73844.3,3.87,3.03,2.95,0,*71
1531703145.83,17968,16.81,73846.5,3.87,3.03,2.95,0,*7E
1531703147.09,17969,16.81,73846.5,3.87,3.07,3.03,0,*75
1531703148.31,17970,16.81,73846.0,3.87,3.03,2.95,0,*77
1531703149.52,17971,16.81,73844.3,3.85,3.03,2.99,0,*78
1531703150.72,17972,16.81,73848.8,3.85,2.99,3.03,0,*7B
1531703151.89,17973,16.81,73850.8,3.85,2.99,2.91,0,*70
1531703153.12,17974,16.81,73854.0,3.85,2.89,2.89,0,*7F
1531703154.37,17975,16.81,73850.0,3.83,2.81,2.81,0,*78
1531703155.6,17976,16.81,73850.8,3.85,2.89,2.81,0,*75
1531703156.77,17977,16.81,73852.3,3.85,2.99,2.99,0,*7C
1531703158.0,17978,16.81,73850.5,3.85,3.03,3.11,0,*70
1531703159.23,17979,16.81,73850.5,3.85,3.11,3.11,0,*72
1531703160.46,17980,16.81,73852.0,3.85,3.11,3.15,0,*70
1531703161.7,17981,16.81,73852.8,3.85,3.15,3.15,0,*75
1531703162.92,17982,16.81,73850.5,3.85,3.15,3.19,0,*7A
1531703164.15,17983,16.81,73848.8,3.85,3.15,3.19,0,*7B
1531703165.38,17984,16.81,73848.5,3.87,3.29,3.33,0,*79
1531703166.58,17985,16.81,73844.8,3.85,3.25,3.33,0,*76
1531703167.82,17986,16.81,73848.5,3.85,3.15,3.15,0,*72
1531703169.05,17987,16.81,73846.8,3.85,3.15,3.11,0,*77
1531703170.28,17988,16.81,73850.3,3.85,3.15,3.11,0,*78
1531703171.52,17989,16.81,73852.0,3.85,3.15,3.03,0,*7A
1531703172.75,17990,16.81,73850.5,3.85,3.11,3.03,0,*76
1531703173.98,17991,16.81,73854.3,3.85,3.11,3.11,0,*74
1531703175.2,17992,16.81,73854.5,3.85,3.11,3.11,0,*77
1531703176.46,17993,16.81,73852.0,3.83,3.11,3.11,0,*70
1531703177.68,17994,16.81,73854.5,3.85,3.11,3.11,0,*71
1531703178.91,17995,16.81,73850.0,3.85,3.11,3.11,0,*70
1531703180.14,17996,16.81,73848.5,3.85,3.15,3.19,0,*7F
1531703181.36,17997,16.81,73850.0,3.85,3.19,3.15,0,*7E
1531703182.58,17998,16.81,73846.8,3.85,3.19,3.19,0,*7D
1531703183.8,17999,16.81,73848.0,3.85,3.19,3.19,0,*7C
1531703185.02,18000,16.81,73850.0,3.85,3.19,3.15,0,*76
1531703186.24,18001,16.81,73844.3,3.85,3.19,3.19,0,*7B
1531703187.44,18002,16.81,73848.0,3.87,3.29,3.29,0,*7A
1531703188.69,18003,16.81,73846.8,3.87,3.23,3.19,0,*72
1531703189.91,18004,16.81,73842.5,3.87,3.29,3.23,0,*76
1531703191.11,18005,16.81,73840.8,3.85,3.25,3.19,0,*70
1531703192.29,18006,16.81,73840.5,3.85,3.25,3.25,0,*7C
1531703193.48,18007,16.81,73844.3,3.85,3.19,3.25,0,*72
1531703194.68,18008,16.81,73840.5,3.85,3.19,3.25,0,*7D
1531703195.86,18009,16.81,73840.8,3.85,3.25,3.29,0,*7F
1531703197.08,18010,16.81,73846.8,3.85,3.19,3.19,0,*7B
1531703198.32,18011,16.81,73844.8,3.87,3.19,3.23,0,*71
1531703199.56,18012,16.81,73848.3,3.87,3.23,3.23,0,*7B
1531703200.81,18013,16.81,73842.0,3.87,3.23,3.23,0,*7A
1531703202.03,18014,16.81,73846.5,3.87,3.19,3.29,0,*7E
1531703203.27,18015,16.81,73848.5,3.85,3.15,3.15,0,*7E
1531703204.49,18016,16.81,73840.0,3.85,3.15,3.19,0,*71
1531703205.7,18017,16.81,73834.5,3.87,3.29,3.29,0,*7E
1531703206.92,18018,16.81,73824.3,3.85,3.19,3.15,0,*7F
1531703208.16,18019,16.81,73834.0,3.87,3.19,3.19,0,*70
1531703209.4,18020,16.81,73832.8,3.87,3.19,3.19,0,*7A
1531703210.65,18021,16.81,73836.3,3.87,3.23,3.19,0,*72
1531703211.9,18022,16.81,73840.8,3.87,3.23,3.19,0,*71
1531703213.14,18023,16.81,73828.8,3.87,3.23,3.19,0,*70
1531703214.38,18024,16.81,73836.0,3.87,3.19,3.19,0,*7E
1531703215.62,18025,16.81,73834.5,3.87,3.19,3.19,0,*7F
1531703216.86,18026,16.81,73838.3,3.87,3.19,3.23,0,*75
1531703218.1,18027,16.81,73842.8,3.85,3.15,3.15,0,*7F
1531703219.33,18028,16.81,73842.3,3.85,3.15,3.15,0,*70
1531703220.56,18029,16.81,73842.8,3.85,3.19,3.15,0,*7D
1531703221.79,18030,16.81,73850.5,3.85,3.15,3.19,0,*75
1531703223.0,18031,16.81,73848.8,3.85,3.19,3.19,0,*78
1531703224.22,18032,16.81,73844.5,3.85,3.19,3.19,0,*7B
1531703225.46,18033,16.81,73844.5,3.87,3.19,3.19,0,*78
1531703226.7,18034,16.81,73838.3,3.87,3.19,3.19,0,*7F
1531703227.94,18035,16.81,73830.8,3.87,3.19,3.23,0,*77
1531703229.14,18036,16.81,73828.3,3.89,3.19,3.29,0,*70
1531703230.4,18037,16.81,73830.3,3.87,3.15,3.19,0,*70
1531703231.65,18038,16.81,73832.3,3.87,3.15,3.19,0,*7F
1531703232.9,18039,16.81,73834.5,3.87,3.15,3.19,0,*7E
1531703234.15,18040,16.81,73828.8,3.87,3.15,3.23,0,*79
1531703235.4,18041,16.81,73824.8,3.87,3.15,3.19,0,*71
1531703236.64,18042,16.81,73830.8,3.87,3.19,3.23,0,*77
1531703237.88,18043,16.81,73826.3,3.87,3.19,3.19,0,*7F
1531703239.13,18044,16.81,73820.5,3.87,3.23,3.19,0,*71
1531703240.37,18045,16.81,73826.5,3.87,3.19,3.23,0,*70
1531703241.61,18046,16.81,73834.3,3.87,3.19,3.19,0,*7A
1531703242.85,18047,16.81,73830.0,3.87,3.19,3.19,0,*7B
1531703244.09,18048,16.81,73830.8,3.87,3.19,3.19,0,*74
1531703245.33,18049,16.81,73838.0,3.87,3.19,3.23,0,*7C
1531703246.57,18050,16.81,73838.0,3.87,3.19,3.23,0,*74
1531703247.82,18051,16.81,73836.0,3.87,3.23,3.23,0,*7C
1531703249.05,18052,16.81,73846.3,3.85,3.15,3.15,0,*7D
1531703250.31,18053,16.81,73844.0,3.87,3.03,3.07,0,*7A
1531703251.56,18054,16.81,73848.5,3.87,3.03,3.07,0,*7D
1531703252.81,18055,16.81,73852.5,3.87,3.03,3.15,0,*7F
1531703254.07,18056,16.81,73858.0,3.87,3.15,3.15,0,*7B
1531703255.32,18057,16.81,73856.3,3.87,3.23,3.15,0,*7F
1531703256.56,18058,16.81,73868.5,3.87,3.19,3.19,0,*75
1531703257.79,18059,16.81,73872.8,3.85,3.15,3.19,0,*7A
1531703259.02,18060,16.81,73876.0,3.85,3.19,3.15,0,*70
1531703260.21,18061,16.81,73874.0,3.85,3.19,3.25,0,*72
1531703261.44,18062,16.81,73880.5,3.85,3.19,3.15,0,*72
1531703262.69,18063,16.81,73886.5,3.87,3.23,3.23,0,*7D
1531703263.91,18064,16.81,73886.3,3.87,3.29,3.33,0,*71
1531703265.14,18065,16.81,73882.3,3.87,3.29,3.33,0,*70
1531703266.38,18066,16.81,73876.0,3.89,3.23,3.33,0,*77
1531703267.58,18067,16.81,73844.0,3.87,3.29,3.29,0,*79
1531703268.82,18068,16.81,73838.0,3.87,3.19,3.23,0,*7F
1531703270.06,18069,16.81,73834.8,3.87,3.23,3.19,0,*7E
1531703271.31,18070,16.81,73836.3,3.87,3.23,3.19,0,*76
1531703272.55,18071,16.81,73838.3,3.87,3.19,3.23,0,*77
1531703273.79,18072,16.81,73862.3,3.87,3.19,3.23,0,*74
1531703275.03,18073,16.81,73874.0,3.87,3.19,3.23,0,*75
1531703276.28,18074,16.81,73866.0,3.87,3.23,3.19,0,*72
1531703277.52,18075,16.81,73878.0,3.87,3.19,3.19,0,*7A
1531703278.76,18076,16.81,73886.5,3.87,3.19,3.19,0,*79
1531703280.0,18077,16.81,73888.3,3.87,3.19,3.19,0,*78
1531703281.26,18078,16.81,73890.8,3.87,3.15,3.15,0,*77
1531703282.49,18079,16.81,73884.3,3.87,2.95,3.03,0,*78
1531703283.69,18080,16.81,73884.8,3.87,2.91,2.91,0,*70
1531703284.94,18081,16.81,73872.0,3.87,3.03,3.15,0,*76
1531703286.17,18082,16.81,73874.0,3.85,3.11,3.11,0,*70
1531703287.4,18083,16.81,73864.8,3.85,3.11,3.03,0,*72
1531703288.63,18084,16.81,73874.0,3.85,3.03,3.11,0,*75
1531703289.85,18085,16.81,73872.5,3.85,3.03,3.11,0,*74
1531703291.09,18086,16.81,73850.8,3.85,3.03,3.03,0,*74
1531703292.26,18087,16.81,73846.0,3.85,2.99,2.99,0,*75
1531703293.46,18088,16.81,73846.5,3.85,3.03,2.99,0,*78
1531703294.69,18089,16.81,73850.5,3.85,3.03,3.03,0,*7B
1531703295.95,18090,16.81,73852.5,3.83,3.11,3.11,0,*75
1531703297.18,18091,16.81,73854.5,3.85,3.15,3.11,0,*76
1531703298.43,18092,16.81,73856.0,3.83,3.15,3.15,0,*77
1531703299.67,18093,16.81,73858.5,3.85,3.15,3.15,0,*70
1531703300.93,18094,16.81,73844.8,3.83,3.15,3.15,0,*71
1531703302.19,18095,16.81,73832.5,3.83,3.15,3.15,0,*70
1531703303.42,18096,16.81,73818.0,3.85,3.15,3.15,0,*75
1531703304.68,18097,16.81,73806.3,3.83,3.15,3.11,0,*76
1531703305.91,18098,16.81,73798.8,3.85,3.15,3.03,0,*7C
1531703307.14,18099,16.81,73858.3,3.85,3.11,3.11,0,*7A
1531703308.36,18100,16.81,73854.3,3.85,3.19,3.15,0,*77
1531703309.62,18101,16.81,73824.0,3.83,3.15,3.11,0,*78
1531703310.85,18102,16.81,73840.8,3.85,3.11,3.03,0,*7A
1531703312.08,18103,16.81,73854.0,3.85,3.11,3.11,0,*78
1531703313.31,18104,16.81,73856.8,3.85,3.15,3.11,0,*7B
1531703314.54,18105,16.81,73862.0,3.85,3.15,3.19,0,*72
1531703315.79,18106,16.81,73864.3,3.83,3.19,3.15,0,*77
1531703317.0,18107,16.81,73862.3,3.85,3.19,3.19,0,*7C
1531703318.22,18108,16.81,73866.0,3.85,3.19,3.19,0,*73
1531703319.47,18109,16.81,73864.8,3.83,3.19,3.15,0,*78
1531703320.65,18110,16.81,73864.8,3.85,3.29,3.25,0,*76
1531703321.83,18111,16.81,73864.0,3.85,3.25,3.25,0,*7B
1531703323.0,18112,16.81,73864.5,3.85,3.29,3.25,0,*74
1531703324.18,18113,16.88,73868.0,3.85,3.25,3.25,0,*79
1531703325.36,18114,16.81,73862.5,3.85,3.25,3.25,0,*7E
1531703326.53,18115,16.81,73864.3,3.85,3.29,3.25,0,*73
1531703327.73,18116,16.81,73860.5,3.85,3.19,3.25,0,*73
1531703328.95,18117,16.81,73864.8,3.83,3.25,3.19,0,*74
1531703330.13,18118,16.81,73866.0,3.85,3.29,3.29,0,*72
1531703331.31,18119,16.81,73862.0,3.85,3.29,3.29,0,*73
1531703332.49,18120,16.81,73860.5,3.85,3.25,3.29,0,*75
1531703333.67,18121,16.81,73866.5,3.85,3.29,3.29,0,*78